Weather in Lebedinka

Russia / Omsk Oblast     56°55′05″N   75°50′36″E
temp.,
°C
wind,
m/s
gust,
m/s
humid.,
%
clouds,
%
prec.,
mm/h
press.,
hPa
HPBL,
m
16 may, sun
sun1600:00+15wnw117972 0.6 101411
03:00+16nnw3879100 0.0 1014251
06:00+15wnw1184100 0.1 101344
09:00+20nw2361100 0.0 1013580
12:00+24wnw234769 0.0 10121379
15:00+24nw594615 0.6 10112133
18:00+19nnw48735 1.9 1013528
21:00+16n268222 0.3 1016141
17 may, mon
mon1700:00+13nne229377 0.3 101641
03:00+12ese00965 0.0 101610
06:00+12sw269246 0.0 1017171
09:00+19sw486343 0.0 1014568
12:00+25wsw584480 0.0 10121146
15:00+30wnw6112652 0.0 10103877
18:00+28nnw483454 0.0 10091578
21:00+21sw235633 0.0 100844
18 may, tue
tue1800:00+15sse1186100 6.4 100926
03:00+14wsw312895 0.0 1008295
06:00+14w4138730 0.0 1008555
09:00+18nw510670 0.0 1007885
12:00+22nw494586 0.1 10072206
15:00+20w236170 0.1 1006109
18:00+15w2892100 7.6 1005483
21:00+13n61093100 7.4 1007608
19 may, wed
wed1900:00+8nne61391100 7.5 1011899
03:00+8nne5118747 0.0 1014934
06:00+6nne498851 0.0 1017508
09:00+10nne48535 0.0 1018917
12:00+13nne46365 0.0 10191991
15:00+14nnw473895 0.0 10182170
18:00+14nnw584578 0.0 10182203
21:00+9n495687 0.0 1020382
20 may, thu
thu2000:00+6n396398 0.0 1021295
03:00+4n2667100 0.0 1022202
06:00+5nnw2561100 0.0 1023282
09:00+8nnw354798 0.0 10231056
12:00+11nw3546100 0.0 10211305
15:00+11sse1464100 0.3 1020707
18:00+12ese4767100 0.3 1016232
21:00+10sse4875100 0.0 1014207